period_start,C,m1,H,J0,J1,J2,J3,J4,J5,JA,JB,JC,JD,JJ,JK,JN,#
2018-06-07 00:03:07,0.08,1.83,0.00,27.82,30.67,33.34,13.81,46.97,1027.85,2012.00,2710.03,2583.56,2959.64,599.96,592.93,58.96,0000 0000 0000 0000 000000
2018-06-07 00:08:08,0.04,1.84,0.00,27.85,30.67,33.33,13.78,46.98,1027.85,2012.00,2709.14,2582.90,2958.88,599.94,592.92,59.01,0000 0000 0000 0000 000000
2018-06-07 00:13:09,0.04,1.84,0.00,27.87,30.68,33.35,13.84,47.11,1027.86,2012.00,2708.84,2582.15,2958.12,600.30,593.22,59.06,0000 0000 0000 0000 000000
2018-06-07 00:18:11,0.01,1.84,0.00,27.89,30.70,33.35,13.84,47.15,1027.85,2012.00,2708.29,2582.01,2958.00,600.24,593.03,59.11,0000 0000 0000 0000 000000
2018-06-07 00:23:12,0.02,1.84,0.00,27.90,30.70,33.35,13.84,47.17,1027.86,2012.00,2707.96,2581.86,2957.54,600.44,593.25,59.16,0000 0000 0000 0000 000000
2018-06-07 00:28:13,0.03,1.84,0.00,27.91,30.71,33.36,13.75,47.22,1027.88,2012.00,2707.61,2581.37,2957.03,599.67,592.53,59.21,0000 0000 0000 0000 000000
2018-06-07 00:33:14,0.02,1.84,0.00,27.92,30.72,33.37,13.79,47.13,1028.02,2012.00,2707.06,2581.02,2956.98,599.96,592.79,59.26,0000 0000 0000 0000 000000
2018-06-07 00:38:16,0.02,1.84,0.00,27.95,30.73,33.37,13.80,47.12,1028.28,2012.00,2706.85,2580.86,2956.38,599.78,592.92,59.31,0000 0000 0000 0000 000000
2018-06-07 00:43:17,0.05,1.85,0.00,27.97,30.75,33.39,13.74,47.04,1028.33,2011.99,2706.10,2580.07,2955.75,599.60,592.63,59.36,0000 0000 0000 0000 000000
2018-06-07 00:48:18,0.04,1.85,0.00,28.00,30.75,33.39,13.82,47.14,1028.34,2011.97,2705.30,2579.43,2954.87,599.70,592.74,59.42,0000 0000 0000 0000 000000
2018-06-07 00:53:20,0.44,1.87,0.00,28.01,30.76,33.39,13.81,47.04,1028.35,2011.95,2698.60,2575.49,2950.58,600.26,593.18,59.47,0000 0000 0000 0000 000000
2018-06-07 00:58:21,0.13,1.88,0.00,28.03,30.77,33.37,13.81,47.07,1028.36,2011.89,2694.54,2573.06,2947.90,600.53,593.29,59.52,0000 0000 0000 0000 000000
2018-06-07 01:03:22,0.04,1.88,0.00,28.07,30.78,33.35,13.79,47.11,1028.38,2011.72,2693.70,2572.29,2946.88,599.77,592.56,59.57,0000 0000 0000 0000 000000
2018-06-07 01:08:23,0.05,1.88,0.00,28.11,30.80,33.33,13.73,47.08,1028.62,2011.48,2692.74,2571.43,2945.80,599.88,592.77,59.62,0000 0000 0000 0000 000000
2018-06-07 01:13:25,0.04,1.89,0.00,28.18,30.81,33.32,13.80,47.17,1028.79,2011.51,2692.02,2570.85,2945.02,600.08,592.88,59.67,0000 0000 0000 0000 000000
2018-06-07 01:18:26,0.03,1.89,0.00,28.25,30.82,33.35,13.80,47.13,1028.80,2011.40,2691.60,2570.09,2944.61,600.15,592.77,59.72,0000 0000 0000 0000 000000
2018-06-07 01:23:28,0.06,1.89,0.00,28.32,30.85,33.37,13.77,47.03,1028.82,2011.16,2690.27,2569.20,2943.50,599.85,592.38,59.77,0000 0000 0000 0000 000000
2018-06-07 01:28:29,0.11,1.89,0.00,28.41,30.87,33.41,13.76,47.12,1028.82,2011.03,2688.79,2567.92,2942.01,599.65,592.03,59.82,0000 0000 0000 0000 000000
2018-06-07 01:33:29,0.09,1.90,0.00,28.49,30.90,33.44,13.72,47.01,1028.83,2011.01,2687.24,2566.39,2940.28,599.84,591.99,59.87,0000 0000 0000 0000 000000
2018-06-07 01:38:31,0.01,1.90,0.00,28.55,30.92,33.47,13.78,47.07,1028.84,2011.00,2686.89,2565.98,2939.65,600.10,592.20,59.92,0000 0000 0000 0000 000000
2018-06-07 01:43:32,0.09,1.91,0.00,28.62,30.95,33.49,13.77,47.03,1028.87,2010.99,2685.84,2565.08,2938.57,600.38,592.36,59.97,0000 0000 0000 0000 000000
2018-06-07 01:48:34,0.12,1.91,0.00,28.58,30.98,33.51,13.72,46.97,1028.93,2010.99,2684.13,2563.32,2936.60,599.39,591.54,60.02,0000 0000 0000 0000 000000
2018-06-07 01:53:35,0.05,1.92,0.00,28.61,31.00,33.57,13.70,46.97,1028.94,2010.93,2683.16,2562.59,2935.79,600.08,592.11,60.07,0000 0000 0000 0000 000000
2018-06-07 01:58:36,0.02,1.92,0.00,28.67,31.02,33.59,12.88,43.84,1029.28,2010.77,2682.13,2561.85,2934.89,571.64,561.31,60.12,0000 0000 0000 0000 000009
2018-06-07 02:03:37,0.02,0.13,0.00,28.68,31.06,33.61,12.86,43.08,1029.31,2011.98,3401.66,3045.55,3511.92,559.49,552.61,0.01,0000 0000 0000 0000 000000
2018-06-07 02:08:38,0.03,0.00,0.00,28.72,31.08,33.61,13.75,46.05,1029.31,2012.00,3421.50,3059.32,3528.76,599.94,592.03,0.06,0000 0000 0000 0000 000000
2018-06-07 02:13:39,0.07,0.01,0.00,28.76,31.10,33.67,13.83,46.21,1029.33,2012.00,3417.16,3055.08,3523.51,600.19,592.09,0.11,0000 0000 0000 0000 000000
2018-06-07 02:18:41,0.10,0.02,0.00,28.78,31.13,33.71,13.78,46.15,1029.41,2011.98,3414.22,3052.33,3520.13,599.85,591.96,0.16,0000 0000 0000 0000 000000
2018-06-07 02:23:42,0.11,0.03,0.00,28.83,31.16,33.79,13.69,46.13,1029.40,2011.97,3412.27,3050.57,3517.99,599.68,591.60,0.21,0000 0000 0000 0000 000000
2018-06-07 02:28:43,0.08,0.03,0.00,28.87,31.20,33.84,13.77,46.21,1029.59,2011.74,3410.53,3048.91,3515.93,600.06,592.06,0.26,0000 0000 0000 0000 000000
2018-06-07 02:33:45,0.12,0.04,0.00,28.90,31.22,33.89,13.74,46.19,1029.61,2011.24,3407.83,3046.16,3512.65,600.29,592.13,0.31,0000 0000 0000 0000 000000
2018-06-07 02:38:46,0.17,0.05,0.00,28.91,31.26,33.93,13.71,46.10,1029.74,2011.05,3404.70,3042.89,3508.78,600.08,591.96,0.36,0000 0000 0000 0000 000000
2018-06-07 02:43:47,0.29,0.06,0.00,28.93,31.29,33.96,13.72,46.20,1029.80,2011.00,3400.61,3038.34,3503.50,599.88,591.79,0.41,0000 0000 0000 0000 000000
2018-06-07 02:48:48,0.11,0.07,0.00,28.97,31.32,33.99,13.65,46.23,1029.80,2011.00,3397.86,3035.65,3500.24,599.82,591.68,0.46,0000 0000 0000 0000 000000
2018-06-07 02:53:49,0.22,0.08,0.00,29.02,31.35,34.01,13.77,46.25,1029.80,2010.98,3394.59,3032.26,3496.32,600.18,591.83,0.51,0000 0000 0000 0000 000000
2018-06-07 02:58:51,0.13,0.08,0.00,29.06,31.37,34.05,13.72,46.34,1029.81,2010.92,3391.99,3029.63,3493.26,599.99,591.71,0.56,0000 0000 0000 0000 000000
2018-06-07 03:03:52,0.16,0.09,0.00,29.09,31.40,34.08,13.70,46.33,1029.81,2010.81,3389.17,3026.90,3490.07,600.13,591.73,0.61,0000 0000 0000 0000 000000
2018-06-07 03:08:53,0.05,0.10,0.00,29.10,31.42,34.11,13.71,46.42,1029.82,2010.24,3386.80,3024.77,3487.57,599.95,591.52,0.66,0000 0000 0000 0000 000000
2018-06-07 03:13:54,0.07,0.10,0.00,29.10,31.45,34.12,13.69,46.40,1029.85,2010.05,3385.09,3023.49,3485.91,600.11,591.69,0.71,0000 0000 0000 0000 000000
2018-06-07 03:18:56,0.08,0.10,0.00,29.12,31.47,34.10,13.78,46.43,1029.82,2010.00,3383.60,3021.88,3484.19,599.99,591.54,0.76,0000 0000 0000 0000 000000
2018-06-07 03:23:57,0.09,0.11,0.00,29.15,31.50,34.13,13.69,46.45,1030.12,2010.00,3382.00,3020.41,3482.36,600.00,591.67,0.81,0000 0000 0000 0000 000000
2018-06-07 03:28:59,0.10,0.11,0.00,29.16,31.53,34.16,13.68,46.59,1030.27,2009.99,3380.24,3018.61,3480.31,599.94,591.63,0.86,0000 0000 0000 0000 000000
2018-06-07 03:34:00,0.07,0.12,0.00,29.19,31.56,34.17,13.79,46.60,1030.29,2009.96,3378.80,3017.35,3478.72,600.05,591.76,0.91,0000 0000 0000 0000 000000
2018-06-07 03:39:01,-0.03,0.12,0.00,29.21,31.58,34.20,13.73,46.65,1030.29,2009.53,3378.02,3016.68,3477.93,600.40,591.95,0.96,0000 0000 0000 0000 000000
2018-06-07 03:44:02,0.00,0.12,0.00,29.27,31.61,34.24,13.76,46.57,1030.29,2009.09,3377.72,3016.05,3477.15,599.97,591.51,1.01,0000 0000 0000 0000 000000
2018-06-07 05:09:08,-3333.30,-3333.30,-3333.30,-3305.47,31.35,33.50,10.53,35.17,1023.00,1609.05,2728.68,2450.48,2822.56,464.19,458.62,0.00,0005 0000 0000 0000 000000
2018-06-07 05:14:20,0.00,0.00,0.00,28.77,31.55,33.98,13.79,45.57,1031.29,2009.99,3403.86,3058.77,3524.63,600.29,593.39,0.05,0000 0000 0000 0000 000000
2018-06-07 05:19:21,0.01,0.00,0.00,28.61,31.50,34.08,13.85,45.83,1031.41,2009.98,3401.70,3057.59,3523.11,600.10,593.63,0.10,0000 0000 0000 0000 000000
2018-06-07 05:24:23,0.04,0.01,0.00,28.55,31.46,34.10,13.82,45.98,1031.39,2009.99,3398.43,3055.79,3521.15,600.10,593.59,0.15,0000 0000 0000 0000 000000
2018-06-07 05:29:24,0.05,0.01,0.00,28.55,31.42,34.07,13.76,46.19,1031.39,2009.99,3396.98,3055.01,3520.05,600.10,593.64,0.20,0000 0000 0000 0000 000000
2018-06-07 05:34:26,0.04,0.01,0.00,28.58,31.39,34.04,13.84,46.26,1031.60,2009.99,3396.14,3054.29,3519.40,599.78,593.49,0.25,0000 0000 0000 0000 000000
2018-06-07 05:39:27,0.03,0.02,0.00,28.61,31.37,33.99,13.81,46.21,1031.75,2010.01,3395.34,3053.79,3518.81,599.97,593.61,0.30,0000 0000 0000 0000 000000
2018-06-07 05:44:28,0.08,0.02,0.00,28.65,31.35,33.95,13.72,46.31,1031.75,2010.04,3393.54,3052.60,3517.42,599.52,593.12,0.35,0000 0000 0000 0000 000000
2018-06-07 05:49:29,0.15,0.03,0.00,28.69,31.34,33.91,13.75,46.26,1031.75,2010.14,3391.65,3050.75,3515.41,599.92,593.58,0.40,0000 0000 0000 0000 000000
2018-06-07 05:54:31,0.07,0.03,0.00,28.74,31.32,33.82,13.74,46.48,1031.76,2010.22,3389.49,3049.02,3513.26,599.42,592.83,0.45,0000 0000 0000 0000 000000
2018-06-07 05:59:32,0.05,0.03,0.00,28.77,31.32,33.79,13.74,46.38,1031.78,2010.25,3388.52,3048.14,3512.39,599.89,593.35,0.50,0000 0000 0000 0000 000000
2018-06-07 06:04:33,0.07,0.04,0.00,28.81,31.32,33.79,13.77,46.42,1031.94,2010.22,3387.32,3047.10,3511.11,599.70,593.08,0.55,0000 0000 0000 0000 000000
2018-06-07 06:09:35,0.08,0.04,0.00,28.86,31.32,33.81,13.76,46.35,1031.96,2010.13,3385.72,3045.58,3509.42,599.82,593.17,0.60,0000 0000 0000 0000 000000
2018-06-07 06:14:36,0.05,0.05,0.00,28.89,31.34,33.83,13.81,46.47,1031.79,2010.09,3384.51,3044.50,3508.10,600.21,593.28,0.65,0000 0000 0000 0000 000000
2018-06-07 06:19:38,0.07,0.05,0.00,28.92,31.35,33.85,13.82,46.33,1031.84,2010.06,3383.18,3043.34,3506.78,600.21,593.26,0.70,0000 0000 0000 0000 000000
2018-06-07 06:24:39,0.06,0.05,0.00,28.96,31.37,33.88,13.80,46.39,1031.92,2010.02,3381.81,3042.22,3505.48,600.27,593.31,0.75,0000 0000 0000 0000 000000
2018-06-07 06:29:40,0.10,0.06,0.00,28.98,31.37,33.90,13.72,46.41,1032.12,2010.02,3380.00,3040.60,3503.64,600.00,593.03,0.80,0000 0000 0000 0000 000000
2018-06-07 06:34:42,0.12,0.06,0.00,29.00,31.40,33.93,13.78,46.67,1032.24,2010.01,3377.61,3038.71,3501.53,599.62,592.70,0.85,0000 0000 0000 0000 000000
2018-06-07 06:39:43,0.07,0.07,0.00,29.03,31.41,33.96,13.74,46.43,1032.24,2010.00,3375.90,3037.16,3499.76,599.91,593.00,0.90,0000 0000 0000 0000 000000
2018-06-07 06:44:44,0.07,0.07,0.00,29.06,31.44,33.99,13.81,46.48,1032.24,2010.00,3374.66,3036.01,3498.45,600.17,593.28,0.95,0000 0000 0000 0000 000000
2018-06-07 06:49:46,0.16,0.08,0.00,29.08,31.46,34.01,13.80,46.44,1032.24,2010.00,3372.32,3033.78,3495.80,600.28,593.36,1.00,0000 0000 0000 0000 000000
2018-06-07 06:54:47,0.17,0.09,0.00,29.10,31.48,34.04,13.69,46.36,1032.24,2009.99,3369.18,3030.61,3492.18,599.68,592.77,1.05,0000 0000 0000 0000 000000
2018-06-07 06:59:48,0.15,0.09,0.00,29.13,31.50,34.07,13.73,46.45,1032.26,2009.95,3366.65,3027.99,3489.13,599.99,592.94,1.10,0000 0000 0000 0000 000000
2018-06-07 07:04:49,0.15,0.10,0.00,29.16,31.53,34.09,13.76,46.48,1032.26,2009.82,3363.93,3025.18,3485.91,599.63,592.50,1.16,0000 0000 0000 0000 000000
2018-06-07 07:09:51,0.07,0.11,0.00,29.18,31.56,34.11,13.76,46.47,1032.26,2009.36,3361.66,3022.83,3483.15,600.00,592.76,1.21,0000 0000 0000 0000 000000
2018-06-07 07:14:52,0.06,0.11,0.00,29.21,31.58,34.15,13.73,46.36,1032.31,2009.05,3359.95,3021.19,3481.24,600.02,592.79,1.26,0000 0000 0000 0000 000000
2018-06-07 07:19:53,0.09,0.11,0.00,29.24,31.61,34.17,13.78,46.35,1032.69,2009.01,3358.47,3019.86,3479.66,599.96,592.94,1.31,0000 0000 0000 0000 000000
2018-06-07 07:24:55,0.06,0.12,0.00,29.26,31.63,34.20,13.77,46.41,1032.73,2009.00,3357.28,3018.69,3478.42,600.38,593.32,1.36,0000 0000 0000 0000 000000
2018-06-07 07:29:56,0.04,0.12,0.00,29.30,31.65,34.23,13.77,46.42,1032.74,2009.00,3356.09,3017.92,3477.19,599.93,592.79,1.41,0000 0000 0000 0000 000000
2018-06-07 07:34:57,0.02,0.12,0.00,29.32,31.68,34.25,13.80,46.51,1032.75,2008.98,3355.75,3017.18,3476.89,599.86,592.74,1.46,0000 0000 0000 0000 000000
2018-06-07 07:39:59,0.05,0.12,0.00,29.36,31.70,34.29,13.77,46.42,1032.75,2008.95,3354.76,3016.63,3475.86,600.12,592.78,1.51,0000 0000 0000 0000 000000
2018-06-07 07:45:00,0.10,0.13,0.00,29.39,31.72,34.30,13.71,46.35,1032.75,2008.78,3352.88,3014.67,3473.69,600.08,592.79,1.56,0000 0000 0000 0000 000000
2018-06-07 07:50:01,0.10,0.13,0.00,29.41,31.75,34.33,13.73,46.42,1032.81,2008.42,3350.53,3012.30,3470.99,599.90,592.66,1.61,0000 0000 0000 0000 000000
2018-06-07 07:55:03,0.06,0.14,0.00,29.44,31.77,34.37,13.78,46.51,1033.05,2008.08,3348.76,3010.50,3468.92,599.98,592.40,1.66,0000 0000 0000 0000 000000
2018-06-07 08:00:04,0.06,0.14,0.00,29.45,31.80,34.38,13.74,46.44,1033.03,2008.01,3347.55,3009.37,3467.62,599.95,592.70,1.71,0000 0000 0000 0000 000000
2018-06-07 08:05:06,0.05,0.15,0.00,29.47,31.82,34.41,13.78,46.52,1033.18,2008.00,3346.53,3008.56,3466.61,599.80,592.63,1.76,0000 0000 0000 0000 000000
2018-06-07 08:10:07,0.06,0.15,0.00,29.47,31.84,34.44,13.75,46.58,1033.22,2008.00,3345.38,3007.60,3465.45,600.19,592.81,1.81,0000 0000 0000 0000 000000
2018-06-07 08:15:08,0.09,0.15,0.00,29.47,31.86,34.46,13.77,46.36,1033.23,2008.00,3343.60,3006.39,3463.92,599.91,592.80,1.86,0000 0000 0000 0000 000000
2018-06-07 08:20:10,0.17,0.16,0.00,29.50,31.88,34.48,13.72,46.25,1033.24,2007.98,3340.16,3003.89,3461.06,599.69,592.47,1.91,0000 0000 0000 0000 000000
2018-06-07 08:25:11,0.18,0.17,0.00,29.50,31.90,34.50,13.69,46.30,1033.28,2007.92,3336.73,3000.76,3457.45,599.96,592.76,1.96,0000 0000 0000 0000 000000
2018-06-07 08:30:12,0.09,0.18,0.00,29.50,31.92,34.53,13.82,46.34,1033.61,2007.81,3334.50,2998.71,3455.26,600.18,593.23,2.01,0000 0000 0000 0000 000000
2018-06-07 08:35:13,0.13,0.18,0.00,29.50,31.93,34.54,13.86,46.30,1033.70,2007.30,3331.57,2996.53,3452.80,600.43,593.57,2.06,0000 0000 0000 0000 000000
2018-06-07 08:40:15,0.09,0.19,0.00,29.51,31.95,34.55,13.84,46.23,1033.70,2007.09,3328.27,2994.35,3450.33,600.46,593.43,2.11,0000 0000 0000 0000 000000
2018-06-07 08:45:16,0.06,0.19,0.00,29.52,31.97,34.58,13.77,46.32,1033.71,2007.02,3326.76,2993.10,3448.89,599.87,592.86,2.16,0000 0000 0000 0000 000000
2018-06-07 08:50:17,0.06,0.19,0.00,29.52,31.99,34.60,13.83,46.27,1033.71,2007.00,3325.38,2992.10,3447.78,600.37,593.21,2.21,0000 0000 0000 0000 000000
2018-06-07 08:55:18,0.03,0.20,0.00,29.55,32.01,34.61,13.79,46.19,1033.71,2007.00,3324.56,2991.67,3447.04,600.28,593.20,2.26,0000 0000 0000 0000 000000
2018-06-07 09:00:20,0.04,0.20,0.00,29.55,32.03,34.62,13.81,46.26,1033.71,2007.00,3323.51,2990.90,3446.20,599.89,592.82,2.31,0000 0000 0000 0000 000000
2018-06-07 09:05:21,0.06,0.20,0.00,29.57,32.05,34.65,13.84,46.30,1033.71,2006.99,3322.24,2989.87,3445.13,600.46,593.39,2.36,0000 0000 0000 0000 000000
2018-06-07 09:10:22,0.08,0.21,0.00,29.59,32.07,34.67,13.83,46.40,1033.71,2006.99,3320.81,2988.75,3443.78,600.40,593.19,2.41,0000 0000 0000 0000 000000
2018-06-07 09:15:23,0.03,0.21,0.00,29.60,32.08,34.69,13.76,46.20,1033.75,2006.96,3319.91,2988.01,3442.94,600.09,593.07,2.46,0000 0000 0000 0000 000000
2018-06-07 09:20:25,0.03,0.21,0.00,29.60,32.10,34.69,13.76,46.30,1033.74,2006.81,3319.06,2987.31,3442.11,600.22,593.08,2.51,0000 0000 0000 0000 000000
2018-06-07 09:25:26,-0.01,0.21,0.00,29.60,32.12,34.72,13.73,46.33,1033.85,2006.45,3318.22,2986.94,3441.55,600.00,592.96,2.56,0000 0000 0000 0000 000000
2018-06-07 09:30:27,0.02,0.21,0.00,29.62,32.13,34.74,13.82,46.38,1033.83,2006.22,3317.66,2986.25,3440.99,600.37,593.21,2.61,0000 0000 0000 0000 000000
2018-06-07 09:35:29,0.01,0.21,0.00,29.62,32.15,34.73,13.74,46.27,1034.02,2006.04,3316.83,2985.95,3440.19,599.98,592.91,2.66,0000 0000 0000 0000 000000
2018-06-07 09:40:30,0.04,0.21,0.00,29.62,32.16,34.75,13.75,46.39,1033.90,2006.03,3316.02,2985.16,3439.84,599.95,592.77,2.71,0000 0000 0000 0000 000000
2018-06-07 09:45:31,0.04,0.21,0.00,29.62,32.17,34.77,13.73,46.35,1034.18,2006.01,3315.20,2984.73,3439.01,599.39,592.48,2.76,0000 0000 0000 0000 000000
2018-06-07 09:50:33,0.04,0.22,0.00,29.65,32.19,34.78,13.83,46.26,1034.25,2006.00,3314.18,2983.99,3438.12,600.09,593.27,2.81,0000 0000 0000 0000 000000
2018-06-07 09:55:34,0.05,0.22,0.00,29.65,32.20,34.80,13.71,46.27,1034.32,2006.00,3313.18,2983.13,3437.16,599.82,592.98,2.86,0000 0000 0000 0000 000000
2018-06-07 10:00:35,0.04,0.22,0.00,29.67,32.21,34.81,13.84,46.26,1034.70,2006.00,3312.36,2982.65,3436.55,600.15,593.42,2.91,0000 0000 0000 0000 000000
2018-06-07 10:05:36,0.04,0.22,0.00,29.67,32.22,34.81,13.76,46.18,1034.71,2006.00,3311.38,2981.88,3435.65,600.02,593.14,2.96,0000 0000 0000 0000 000000
2018-06-07 10:10:38,0.05,0.23,0.00,29.69,32.24,34.80,13.74,46.11,1034.70,2006.00,3310.38,2981.09,3434.79,599.74,593.09,3.01,0000 0000 0000 0000 000000
2018-06-07 10:15:39,0.05,0.23,0.00,29.70,32.25,34.82,13.67,46.17,1034.90,2005.99,3309.47,2980.42,3433.81,599.74,593.03,3.06,0000 0000 0000 0000 000000
2018-06-07 10:20:40,0.03,0.23,0.00,29.68,32.26,34.82,13.79,46.26,1035.16,2005.99,3308.38,2979.86,3433.02,599.81,593.32,3.11,0000 0000 0000 0000 000000
2018-06-07 10:25:41,0.05,0.23,0.00,29.67,32.27,34.83,13.74,46.21,1035.16,2005.96,3307.58,2979.07,3432.21,600.06,593.61,3.16,0000 0000 0000 0000 000000
2018-06-07 10:30:42,0.04,0.24,0.00,29.67,32.29,34.84,13.75,46.27,1035.16,2005.93,3306.66,2978.37,3431.44,600.04,593.61,3.21,0000 0000 0000 0000 000000
2018-06-07 10:35:43,0.00,0.24,0.00,29.67,32.30,34.89,13.83,46.37,1035.14,2005.79,3305.86,2977.94,3430.83,600.21,593.79,3.26,0000 0000 0000 0000 000000
2018-06-07 10:40:44,0.03,0.24,0.00,29.67,32.30,34.90,13.78,46.34,1034.98,2005.61,3305.05,2977.22,3430.07,599.49,592.92,3.31,0000 0000 0000 0000 000000
2018-06-07 10:45:46,0.02,0.24,0.00,29.67,32.32,34.91,13.77,46.18,1034.70,2005.43,3304.13,2976.61,3429.32,599.94,593.23,3.36,0000 0000 0000 0000 000000
2018-06-07 10:50:47,0.02,0.24,0.00,29.68,32.32,34.88,13.72,46.01,1034.70,2005.22,3303.04,2975.94,3428.40,599.84,593.06,3.41,0000 0000 0000 0000 000000
2018-06-07 10:55:48,0.04,0.24,0.00,29.67,32.33,34.90,13.79,46.25,1034.71,2005.11,3302.01,2975.14,3427.66,599.74,593.10,3.46,0000 0000 0000 0000 000000
2018-06-07 11:00:49,0.04,0.24,0.00,29.67,32.34,34.90,13.81,46.12,1034.77,2005.08,3301.03,2974.61,3426.94,600.05,593.36,3.52,0000 0000 0000 0000 000000
2018-06-07 11:05:51,0.04,0.25,0.00,29.67,32.35,34.91,13.76,46.23,1034.96,2005.04,3299.98,2973.93,3426.04,600.03,593.55,3.57,0000 0000 0000 0000 000000
2018-06-07 11:10:52,0.05,0.25,0.00,29.69,32.35,34.95,13.69,46.27,1035.04,2005.02,3299.06,2973.10,3425.15,599.75,593.14,3.62,0000 0000 0000 0000 000000
2018-06-07 11:15:53,0.04,0.25,0.00,29.68,32.35,34.99,13.86,46.15,1034.96,2005.01,3298.18,2972.66,3424.60,600.53,593.89,3.67,0000 0000 0000 0000 000000
2018-06-07 11:20:55,0.03,0.25,0.00,29.66,32.35,35.03,13.79,46.17,1035.17,2005.00,3297.23,2972.01,3423.98,600.14,593.73,3.72,0000 0000 0000 0000 000000
2018-06-07 11:25:56,0.04,0.25,0.00,29.63,32.35,35.05,13.79,46.27,1035.17,2005.01,3296.59,2971.63,3423.23,599.77,593.33,3.77,0000 0000 0000 0000 000000
2018-06-07 11:30:58,0.02,0.26,0.00,29.58,32.35,35.04,13.84,46.12,1035.18,2005.01,3295.79,2971.02,3422.69,600.58,594.36,3.82,0000 0000 0000 0000 000000
2018-06-07 11:35:59,0.02,0.26,0.00,29.48,32.35,35.02,13.83,46.23,1035.18,2005.00,3295.04,2970.78,3422.06,599.78,593.68,3.87,0000 0000 0000 0000 000000
2018-06-07 11:41:00,0.04,0.26,0.00,29.41,32.35,35.02,13.80,46.20,1035.17,2005.00,3294.21,2970.05,3421.68,599.84,593.91,3.92,0000 0000 0000 0000 000000
2018-06-07 11:46:01,0.05,0.26,0.00,29.34,32.32,35.11,13.85,46.24,1035.17,2005.01,3293.26,2969.53,3420.84,600.25,594.32,3.97,0000 0000 0000 0000 000000
2018-06-07 11:51:02,0.05,0.27,0.00,29.30,32.31,35.13,13.83,46.26,1035.17,2005.01,3292.02,2968.74,3419.91,599.70,593.98,4.02,0000 0000 0000 0000 000000
2018-06-07 11:56:04,0.04,0.27,0.00,29.26,32.30,35.12,13.89,46.26,1035.17,2005.01,3290.97,2968.00,3419.05,600.49,594.79,4.07,0000 0000 0000 0000 000000
2018-06-07 12:01:05,0.06,0.27,0.00,29.22,32.27,35.10,13.86,46.23,1035.16,2005.06,3289.98,2967.35,3418.29,599.98,594.42,4.12,0000 0000 0000 0000 000000
2018-06-07 12:06:07,0.06,0.27,0.00,29.18,32.26,35.06,13.86,46.27,1035.08,2005.12,3288.74,2966.59,3417.51,599.99,594.51,4.17,0000 0000 0000 0000 000000
2018-06-07 12:11:08,0.06,0.28,0.00,29.15,32.24,35.03,13.80,46.24,1035.12,2005.30,3287.46,2965.75,3416.52,599.82,594.32,4.22,0000 0000 0000 0000 000000
2018-06-07 12:16:09,0.10,0.28,0.00,29.12,32.21,35.00,13.81,46.23,1035.08,2005.79,3286.06,2964.94,3415.54,600.06,594.64,4.27,0000 0000 0000 0000 000000
2018-06-07 12:21:11,0.08,0.29,0.00,29.08,32.19,34.92,13.87,46.21,1034.82,2005.97,3284.67,2964.00,3414.47,600.09,594.58,4.32,0000 0000 0000 0000 000000
2018-06-07 12:26:12,0.06,0.29,0.00,29.03,32.16,34.94,13.77,46.36,1034.82,2005.99,3283.22,2963.07,3413.32,599.52,594.05,4.37,0000 0000 0000 0000 000000
2018-06-07 12:31:14,0.05,0.29,0.00,28.99,32.14,34.91,13.89,46.26,1034.82,2005.98,3282.14,2962.30,3412.58,600.17,594.72,4.42,0000 0000 0000 0000 000000
2018-06-07 12:36:15,0.02,0.29,0.00,28.94,32.11,34.86,13.80,46.37,1034.92,2005.99,3281.25,2961.97,3411.98,599.66,594.46,4.47,0000 0000 0000 0000 000000
2018-06-07 12:41:16,0.05,0.30,0.00,28.86,32.08,34.81,13.86,46.20,1034.97,2005.99,3280.37,2961.20,3411.20,600.25,595.24,4.52,0000 0000 0000 0000 000000
2018-06-07 12:46:17,0.04,0.30,0.00,28.75,32.05,34.70,13.86,46.31,1035.11,2005.99,3279.29,2960.72,3410.58,600.07,595.18,4.57,0000 0000 0000 0000 000000
2018-06-07 12:51:18,0.04,0.30,0.00,28.64,32.01,34.67,13.87,46.44,1034.94,2006.02,3278.04,2960.02,3409.89,599.94,595.13,4.62,0000 0000 0000 0000 000000
2018-06-07 12:56:20,0.07,0.30,0.00,28.61,31.97,34.63,13.89,46.30,1035.03,2006.14,3276.90,2959.37,3409.05,600.32,595.82,4.67,0000 0000 0000 0000 000000
2018-06-07 13:01:21,0.08,0.31,0.00,28.56,31.94,34.59,13.92,46.46,1034.91,2006.70,3275.98,2958.96,3408.50,600.12,595.65,4.72,0000 0000 0000 0000 000000
2018-06-07 13:06:22,0.05,0.31,0.00,28.51,31.90,34.54,13.88,46.39,1034.87,2006.94,3275.10,2958.30,3408.01,600.47,596.11,4.77,0000 0000 0000 0000 000000
2018-06-07 13:11:23,0.03,0.31,0.00,28.47,31.87,34.48,13.80,46.35,1034.78,2006.98,3274.38,2958.00,3407.56,599.91,595.55,4.82,0000 0000 0000 0000 000000
2018-06-07 13:16:25,0.03,0.32,0.00,28.45,31.83,34.42,13.91,46.36,1034.71,2006.99,3273.65,2957.55,3407.01,600.33,596.01,4.87,0000 0000 0000 0000 000000
2018-06-07 13:21:26,0.02,0.32,0.00,28.42,31.79,34.38,13.99,46.31,1034.70,2007.00,3272.94,2957.02,3406.61,600.44,596.15,4.92,0000 0000 0000 0000 000000
2018-06-07 13:26:27,0.04,0.32,0.00,28.42,31.76,34.34,13.94,46.39,1034.71,2007.04,3272.06,2956.75,3406.00,600.27,596.15,4.97,0000 0000 0000 0000 000000
2018-06-07 13:31:29,0.08,0.32,0.00,28.42,31.72,34.27,13.88,46.39,1034.70,2007.42,3271.17,2956.05,3405.47,600.07,595.87,5.02,0000 0000 0000 0000 000000
2018-06-07 13:36:30,0.05,0.33,0.00,28.34,31.69,34.25,13.87,46.40,1034.71,2007.86,3270.47,2955.94,3405.00,600.21,596.04,5.07,0000 0000 0000 0000 000000
2018-06-07 13:41:31,0.06,0.33,0.00,28.32,31.65,34.24,13.90,46.52,1034.73,2007.97,3269.54,2955.11,3404.39,599.46,595.37,5.12,0000 0000 0000 0000 000000
2018-06-07 13:46:33,0.01,0.33,0.00,28.32,31.61,34.22,13.95,46.51,1034.85,2007.99,3268.79,2954.98,3403.98,600.04,596.19,5.17,0000 0000 0000 0000 000000
2018-06-07 13:51:34,0.05,0.33,0.00,28.30,31.58,34.20,13.92,46.46,1034.83,2007.99,3267.85,2954.27,3403.25,599.96,596.00,5.22,0000 0000 0000 0000 000000
2018-06-07 13:56:35,0.01,0.33,0.00,28.28,31.55,34.18,13.90,46.43,1034.76,2008.01,3267.04,2953.99,3402.85,600.13,596.14,5.27,0000 0000 0000 0000 000000
2018-06-07 14:01:37,0.05,0.34,0.00,28.26,31.53,34.15,13.89,46.38,1034.72,2008.04,3266.24,2953.34,3402.08,599.85,596.02,5.32,0000 0000 0000 0000 000000
2018-06-07 14:06:38,0.05,0.34,0.00,28.25,31.50,34.12,13.89,46.49,1034.69,2008.24,3265.45,2953.00,3401.70,600.13,596.31,5.37,0000 0000 0000 0000 000000
2018-06-07 14:11:39,0.06,0.34,0.00,28.23,31.47,34.11,13.88,46.52,1034.70,2008.40,3264.57,2952.41,3401.03,600.06,596.21,5.42,0000 0000 0000 0000 000000
2018-06-07 14:16:40,0.05,0.34,0.00,28.22,31.45,34.07,13.89,46.44,1034.70,2008.75,3263.89,2952.00,3400.44,599.97,596.17,5.47,0000 0000 0000 0000 000000
2018-06-07 14:21:42,0.04,0.35,0.00,28.19,31.42,34.08,13.86,46.57,1034.70,2008.96,3263.10,2951.79,3400.00,599.63,595.79,5.52,0000 0000 0000 0000 000000